Regional Weather Roundup
Issued by NWS

Home | Current Version | Previous Version | Graphics & Text | Print | Product List | Glossary Off
Versions: 1 2 3 4 5 6 7 8 9 10 11 12 13 14 15 16 17 18 19 20 21 22 23 24 25 26 27 28 29 30 31 32 33 34 35 36 37 38 39 40 41 42 43 44 45 46 47 48 49 50

733
ASUS43 KTOP 022008
RWRKS

WEATHER ROUNDUP FOR KANSAS
NATIONAL WEATHER SERVICE GOODLAND KS
300 PM CDT MON MAY 02 2016

NOTE:  "FAIR" INDICATES FEW OR NO CLOUDS BELOW 12,000 FEET WITH NO
SIGNIFICANT WEATHER AND/OR OBSTRUCTIONS TO VISIBILITY.

KSZ001>006-013>018-027>032-041>047-022100-
NORTHWEST KANSAS

CITY           SKY/WX    TMP DP  RH WIND       PRES   REMARKS
GOODLAND       SUNNY     60  31  33 NW10      30.14F
HAYS           MOSUNNY   61  36  39 NW10      30.13F
HILL CITY      SUNNY     64  34  32 NW8       30.13F
RUSSELL        MOSUNNY   61  37  41 N9        30.11F
$$

KSZ061>065-074>080-084>089-022100-
SOUTHWEST KANSAS

CITY           SKY/WX    TMP DP  RH WIND       PRES   REMARKS
DODGE CITY     MOSUNNY   58  33  39 NW6       30.16F
ELKHART          N/A     57  37  47 NW5         N/A
GARDEN CITY    SUNNY     58  32  37 NW8       30.16F
GREAT BEND     PTSUNNY   61  37  41 W9        30.13F
LIBERAL        SUNNY     57  34  41 NW7       30.19F
PRATT          PTSUNNY   59  35  40 NW9G17    30.14F
$$

KSZ066>073-081>083-090>101-022100-
SOUTHEAST KANSAS

CITY           SKY/WX    TMP DP  RH WIND       PRES   REMARKS
CHANUTE        CLOUDY    56  44  64 N5        30.11F
COFFEYVILLE    CLOUDY    59  44  57 N15       30.11F
HUTCHINSON     PTSUNNY   63  37  38 NW13      30.13F
MEDICINE LODGE   N/A     60  38  43 NW12      30.14F
NEWTON         CLOUDY    57  39  51 NW14      30.14F
PARSONS        CLOUDY    58  46  64 NW12      30.12S
WICHITA INTL   PTSUNNY   61  41  47 N8        30.13F
WICHITA JABRA  CLOUDY    61  41  47 N6G17     30.12F
WINFIELD       CLOUDY    60  43  53 N13       30.14F
$$

KSZ007>012-019>026-033>040-048>060-102>105-022100-
NORTHEAST KANSAS

CITY           SKY/WX    TMP DP  RH WIND       PRES   REMARKS
CONCORDIA      PTSUNNY   61  38  42 NE6       30.11F
EMPORIA        CLOUDY    60  40  47 NW12G20   30.10F
LAWRENCE       CLOUDY    53  46  77 E7        30.10F
MANHATTAN      CLOUDY    63  40  42 CALM      30.10F
MARYSVILLE     CLOUDY    61  45  55 N7        30.10F
OLATHE IND     CLOUDY    55  45  68 NE7       30.10F
OLATHE EXE     CLOUDY    53  44  71 N5        30.10S
SALINA         PTSUNNY   66  40  38 NW9G18    30.13F
TOPEKA BILLARD CLOUDY    58  45  62 N8        30.10F
TOPEKA FORBES  CLOUDY    57  44  62 NE7       30.10S
$$




USA.gov is the U.S. government's official web portal to all federal, state and local government web resources and services.